Location: Chmeli�t?
(49.8978°N, 15.0526°E)
Time: 23:28:35
(UTC+00:00)

Cosmos 2074 Rocket - Pass Details

Date: 07 October 2020
Orbit: 967 x 986 km, 82.9° (Epoch: 24 October)

Event Time Altitude Azimuth Distance (km) Brightness Sun altitude
Rises 21:41:55 0° 348° (NNW) 3,691 7.8 -43.9°
Reaches altitude 10° 21:44:28 10° 346° (NNW) 2,736 6.9 -44.1°
Enters shadow 21:46:30 22° 341° (NNW) 2,002 6.0 -44.2°
